When you browse on this site, cookies collect data to enhance your experience and personalize the content and advertising you see.
Visit our Privacy Policy to learn more. By continuing to use the site, you agree to this use of cookies and data.
  • In Österreich
  • Länderverzeichnis
  • Für 7 Tage
  • Wassertemperatur
  • Satellitenkarten
  • Wetterkarte
  • News
  • Widgets
  • user-avatar
    Anmelden

    Stündliche Wetter Lusaka

    Heute, 16 Januar, Mittwoch

    Zeit Temperatur Niederschläge Wind Luftdruck Luftfeuchtigkeit
    00:00 +20°C° 0.7 mm 1 m/S 657 mmHg 95%
    01:00 +20°C° 0.7 mm 1 m/S 657 mmHg 95%
    02:00 +20°C° 0 mm 1 m/S 657 mmHg 95%
    03:00 +20°C° 0.4 mm 1 m/S 657 mmHg 95%
    04:00 +20°C° 0.4 mm 1 m/S 656 mmHg 96%
    05:00 +19°C° 0.4 mm 2 m/S 656 mmHg 96%
    06:00 +19°C° 0.1 mm 2 m/S 657 mmHg 95%
    07:00 +20°C° 0.1 mm 2 m/S 657 mmHg 94%
    08:00 +20°C° 0.1 mm 3 m/S 657 mmHg 92%
    09:00 +21°C° 0.1 mm 3 m/S 658 mmHg 86%
    10:00 +22°C° 0.1 mm 3 m/S 658 mmHg 81%
    11:00 +25°C° 0.1 mm 3 m/S 658 mmHg 75%
    12:00 +25°C° 0.1 mm 3 m/S 658 mmHg 71%
    13:00 +26°C° 0.1 mm 4 m/S 657 mmHg 67%
    14:00 +27°C° 0.1 mm 4 m/S 657 mmHg 63%
    15:00 +27°C° 0 mm 3 m/S 656 mmHg 66%
    16:00 +27°C° 0 mm 3 m/S 656 mmHg 68%
    17:00 +26°C° 0 mm 2 m/S 655 mmHg 70%
    18:00 +25°C° 0 mm 2 m/S 655 mmHg 74%
    19:00 +23°C° 0 mm 1 m/S 655 mmHg 78%
    20:00 +22°C° 0 mm 1 m/S 655 mmHg 81%
    21:00 +22°C° 0 mm 1 m/S 655 mmHg 83%
    22:00 +21°C° 0 mm 1 m/S 655 mmHg 84%
    23:00 +21°C° 0 mm 1 m/S 656 mmHg 86%

    Morgen, 17 Januar, Donnerstag

    Zeit Temperatur Niederschläge Wind Luftdruck Luftfeuchtigkeit
    00:00 +21°C° 0 mm 1 m/S 656 mmHg 86%
    01:00 +21°C° 0 mm 1 m/S 655 mmHg 87%
    02:00 +20°C° 0 mm 1 m/S 655 mmHg 88%
    03:00 +20°C° 0.3 mm 1 m/S 655 mmHg 89%
    04:00 +20°C° 0.3 mm 1 m/S 655 mmHg 90%
    05:00 +20°C° 0.3 mm 1 m/S 655 mmHg 91%
    06:00 +21°C° 0.6 mm 1 m/S 656 mmHg 90%
    07:00 +22°C° 0.6 mm 1 m/S 656 mmHg 89%
    08:00 +22°C° 0.6 mm 1 m/S 657 mmHg 88%
    09:00 +23°C° 1.2 mm 2 m/S 657 mmHg 86%
    10:00 +24°C° 1.2 mm 2 m/S 657 mmHg 84%
    11:00 +25°C° 1.2 mm 2 m/S 657 mmHg 82%
    12:00 +25°C° 0.4 mm 3 m/S 657 mmHg 79%
    13:00 +26°C° 0.4 mm 3 m/S 656 mmHg 75%
    14:00 +26°C° 0.4 mm 3 m/S 656 mmHg 71%
    15:00 +26°C° 0.5 mm 3 m/S 655 mmHg 76%
    16:00 +25°C° 0.5 mm 2 m/S 655 mmHg 80%
    17:00 +24°C° 0.5 mm 2 m/S 654 mmHg 84%
    18:00 +23°C° 0.3 mm 2 m/S 654 mmHg 87%
    19:00 +22°C° 0.3 mm 1 m/S 654 mmHg 90%
    20:00 +21°C° 0.3 mm 1 m/S 655 mmHg 93%
    21:00 +21°C° 0.1 mm 1 m/S 655 mmHg 93%
    22:00 +21°C° 0.1 mm 1 m/S 655 mmHg 94%
    23:00 +21°C° 0.1 mm 1 m/S 655 mmHg 95%

    übermorgen, 18 Januar, Freitag

    Zeit Temperatur Niederschläge Wind Luftdruck Luftfeuchtigkeit
    00:00 +21°C° 1 mm 1 m/S 655 mmHg 95%
    01:00 +20°C° 1 mm 1 m/S 654 mmHg 96%
    02:00 +20°C° 1 mm 1 m/S 654 mmHg 96%
    03:00 +20°C° 0.6 mm 1 m/S 654 mmHg 96%
    04:00 +20°C° 0.6 mm 1 m/S 654 mmHg 96%
    05:00 +19°C° 0.6 mm 1 m/S 654 mmHg 96%
    06:00 +20°C° 0.4 mm 1 m/S 654 mmHg 95%
    07:00 +21°C° 0.4 mm 1 m/S 655 mmHg 93%
    08:00 +20°C° 0.4 mm 2 m/S 655 mmHg 92%
    09:00 +23°C° 0.2 mm 2 m/S 656 mmHg 85%
    10:00 +24°C° 0.2 mm 2 m/S 656 mmHg 79%
    11:00 +25°C° 0.2 mm 3 m/S 656 mmHg 72%
    12:00 +26°C° 0.2 mm 3 m/S 656 mmHg 71%
    13:00 +27°C° 0.2 mm 2 m/S 655 mmHg 69%
    14:00 +27°C° 0.2 mm 2 m/S 654 mmHg 67%
    15:00 +26°C° 1.1 mm 2 m/S 654 mmHg 73%
    16:00 +25°C° 1.1 mm 2 m/S 654 mmHg 79%
    17:00 +25°C° 1.1 mm 1 m/S 653 mmHg 85%
    18:00 +23°C° 0.6 mm 1 m/S 654 mmHg 88%
    19:00 +21°C° 0.6 mm 2 m/S 654 mmHg 90%
    20:00 +20°C° 0.6 mm 2 m/S 654 mmHg 93%
    21:00 +20°C° 0.4 mm 2 m/S 654 mmHg 93%
    22:00 +20°C° 0.4 mm 2 m/S 655 mmHg 93%
    23:00 +20°C° 0.4 mm 3 m/S 655 mmHg 93%

    19 Januar, Samstag

    Zeit Temperatur Niederschläge Wind Luftdruck Luftfeuchtigkeit
    00:00 +20°C° 0.7 mm 3 m/S 654 mmHg 94%
    01:00 +19°C° 0.7 mm 3 m/S 654 mmHg 94%
    02:00 +19°C° 0.7 mm 3 m/S 653 mmHg 95%
    03:00 +19°C° 0.7 mm 3 m/S 653 mmHg 95%
    04:00 +19°C° 0.7 mm 3 m/S 654 mmHg 95%
    05:00 +18°C° 0.7 mm 2 m/S 654 mmHg 95%
    06:00 +19°C° 0.1 mm 3 m/S 654 mmHg 94%
    07:00 +19°C° 0.1 mm 3 m/S 655 mmHg 94%
    08:00 +19°C° 0.1 mm 3 m/S 655 mmHg 93%
    09:00 +21°C° 0 mm 3 m/S 656 mmHg 87%
    10:00 +23°C° 0 mm 4 m/S 656 mmHg 81%
    11:00 +25°C° 0 mm 4 m/S 656 mmHg 75%
    12:00 +26°C° 0.5 mm 3 m/S 656 mmHg 75%
    13:00 +26°C° 0.5 mm 3 m/S 655 mmHg 75%
    14:00 +26°C° 0.5 mm 3 m/S 654 mmHg 75%
    15:00 +26°C° 0.3 mm 2 m/S 654 mmHg 77%
    16:00 +26°C° 0.3 mm 2 m/S 654 mmHg 79%
    17:00 +25°C° 0.3 mm 2 m/S 653 mmHg 82%
    18:00 +24°C° 0.4 mm 2 m/S 654 mmHg 85%
    19:00 +23°C° 0.4 mm 2 m/S 654 mmHg 88%
    20:00 +21°C° 0.4 mm 2 m/S 654 mmHg 92%
    21:00 +21°C° 0.1 mm 2 m/S 654 mmHg 92%
    22:00 +20°C° 0.1 mm 2 m/S 654 mmHg 93%
    23:00 +20°C° 0.1 mm 2 m/S 654 mmHg 94%

    20 Januar, Sonntag

    Zeit Temperatur Niederschläge Wind Luftdruck Luftfeuchtigkeit
    00:00 +20°C° 0.2 mm 3 m/S 654 mmHg 94%
    01:00 +19°C° 0.2 mm 3 m/S 654 mmHg 93%
    02:00 +19°C° 0.2 mm 3 m/S 653 mmHg 93%
    03:00 +19°C° 0.4 mm 3 m/S 653 mmHg 93%
    04:00 +19°C° 0.4 mm 2 m/S 654 mmHg 94%
    05:00 +20°C° 0.4 mm 1 m/S 654 mmHg 95%
    06:00 +19°C° 0.2 mm 2 m/S 654 mmHg 94%
    07:00 +20°C° 0.2 mm 2 m/S 655 mmHg 93%
    08:00 +20°C° 0.2 mm 3 m/S 655 mmHg 92%
    09:00 +21°C° 1.1 mm 3 m/S 655 mmHg 91%
    10:00 +21°C° 1.1 mm 3 m/S 655 mmHg 89%
    11:00 +22°C° 1.1 mm 3 m/S 655 mmHg 88%
    12:00 +22°C° 1 mm 3 m/S 655 mmHg 86%
    13:00 +24°C° 1 mm 3 m/S 655 mmHg 85%
    14:00 +23°C° 1 mm 4 m/S 654 mmHg 83%
    15:00 +24°C° 0.5 mm 3 m/S 654 mmHg 83%
    16:00 +24°C° 0.5 mm 3 m/S 654 mmHg 83%
    17:00 +24°C° 0.5 mm 3 m/S 654 mmHg 83%
    18:00 +22°C° 0.1 mm 3 m/S 654 mmHg 86%
    19:00 +21°C° 0.1 mm 2 m/S 654 mmHg 90%
    20:00 +20°C° 0.1 mm 2 m/S 655 mmHg 93%
    21:00 +19°C° 0 mm 2 m/S 655 mmHg 94%
    22:00 +20°C° 0 mm 1 m/S 655 mmHg 95%
    23:00 +20°C° 0 mm 1 m/S 656 mmHg 96%

    21 Januar, Montag

    Zeit Temperatur Niederschläge Wind Luftdruck Luftfeuchtigkeit
    00:00 +20°C° 0 mm 1 m/S 655 mmHg 95%
    01:00 +20°C° 0 mm 1 m/S 655 mmHg 95%
    02:00 +19°C° 0 mm 1 m/S 655 mmHg 95%
    03:00 +19°C° 0 mm 1 m/S 655 mmHg 95%
    04:00 +19°C° 0 mm 1 m/S 655 mmHg 95%
    05:00 +19°C° 0 mm 1 m/S 655 mmHg 95%
    06:00 +20°C° 0.1 mm 1 m/S 656 mmHg 93%
    07:00 +20°C° 0.1 mm 1 m/S 657 mmHg 92%
    08:00 +21°C° 0.1 mm 1 m/S 657 mmHg 91%
    09:00 +22°C° 0.6 mm 1 m/S 657 mmHg 87%
    10:00 +24°C° 0.6 mm 1 m/S 657 mmHg 84%
    11:00 +25°C° 0.6 mm 1 m/S 658 mmHg 80%
    12:00 +26°C° 1.7 mm 1 m/S 657 mmHg 79%
    13:00 +26°C° 1.7 mm 1 m/S 657 mmHg 78%
    14:00 +25°C° 1.7 mm 0 m/S 656 mmHg 78%
    15:00 +26°C° 2.7 mm 1 m/S 656 mmHg 81%
    16:00 +25°C° 2.7 mm 1 m/S 655 mmHg 85%
    17:00 +24°C° 2.7 mm 1 m/S 654 mmHg 89%
    18:00 +23°C° 1.7 mm 1 m/S 655 mmHg 90%
    19:00 +22°C° 1.7 mm 1 m/S 655 mmHg 92%
    20:00 +21°C° 1.7 mm 1 m/S 656 mmHg 93%
    21:00 +21°C° 1.9 mm 1 m/S 656 mmHg 93%
    22:00 +21°C° 1.9 mm 1 m/S 656 mmHg 94%
    23:00 +21°C° 1.9 mm 1 m/S 656 mmHg 94%
    Mehr zeigen